Dewpoint
7 7 7 8 8 8 9 8 9 9 8 8 7 7 7 8 8 8 9 9 8 8 7 7 6 5 4 3 2 2 2 2 1 0 0 -0 -1 -1 -2 -3 -3 -4 -4
8 9 10 9 9 9 8 8 7 9 10 9 8 8 9 9 9 9 9 8 8 7 6 6 5 4 3 2 2 1 0 0 0 0 -1 -2 -1 -1 -1 -1 -2 -2 -3
10 9 9 8 8 8 6 8 7 6 7 9 8 9 9 8 7 7 7 8 7 6 5 4 3 2 1 1 0 -0 -1 -1 -1 -0 -1 -1 -3 -4 -5 -5 -4 -4 -4
9 9 9 9 9 8 9 7 7 7 8 10 9 9 8 8 8 7 7 6 5 4 4 3 2 1 1 -0 -1 -2 -3 -3 -3 -4 -4 -4 -4 -5 -5 -5 -6 -6 -7
9 9 9 9 6 8 9 8 6 10 10 10 9 8 8 8 8 7 6 5 4 3 2 1 1 -0 -1 -2 -3 -3 -2 -3 -3 -3 -3 -3 -3 -4 -5 -5 -4 -5 -6
10 10 9 9 9 9 10 9 10 10 9 8 8 8 8 7 6 6 5 4 2 1 0 -1 -1 -1 -3 -4 -4 -4 -4 -4 -4 -4 -4 -4 -4 -5 -7 -7 -6 -5 -5
10 9 8 8 9 10 10 9 9 9 8 7 7 7 6 6 5 3 2 1 -0 -1 -1 -1 -2 -6 -8 -8 -7 -6 -5 -4 -4 -5 -6 -7 -10 -12 -13 -8 -5 -5 -6
10 10 10 11 10 10 10 9 8 7 6 6 5 5 4 2 0 -0 -1 -1 -1 -2 -3 -8 -10 -9 -8 -8 -9 -11 -15 -22 -28 -33 -36 -36 -31 -27 -22 -25 -27 -19 -8
9 10 10 10 9 9 8 8 7 6 5 4 2 1 0 -0 -0 -1 -2 -5 -9 -9 -10 -11 -11 -11 -14 -24 -34 -37 -38 -39 -38 -33 -27 -23 -20 -15 -12 -10 -11 -9 -9
10 10 10 9 9 8 7 5 3 3 2 1 0 -0 -1 -2 -2 -4 -6 -9 -10 -10 -9 -12 -21 -33 -37 -38 -39 -38 -38 -36 -35 -34 -33 -32 -28 -20 -12 -10 -8 -9 -9
9 8 8 8 6 4 3 2 2 1 0 -0 -1 -1 -2 -2 -3 -5 -6 -7 -7 -11 -23 -32 -36 -37 -38 -38 -38 -37 -31 -32 -31 -32 -33 -31 -29 -27 -22 -14 -10 -8 -8
7 7 5 4 3 2 2 1 1 0 -0 -1 -1 -3 -3 -4 -5 -6 -6 -7 -12 -26 -33 -36 -37 -37 -37 -37 -35 -31 -32 -31 -31 -31 -31 -30 -25 -19 -16 -18 -15 -10 -8
5 4 3 2 2 2 1 1 0 -0 -1 -1 -3 -4 -5 -6 -6 -6 -8 -13 -23 -32 -36 -36 -36 -35 -35 -31 -28 -29 -29 -30 -29 -27 -27 -26 -21 -16 -14 -14 -15 -12 -10
3 2 2 2 2 1 0 -0 -0 -1 -2 -3 -4 -6 -7 -7 -8 -11 -13 -22 -32 -35 -35 -34 -34 -33 -29 -26 -25 -27 -29 -29 -29 -27 -25 -24 -21 -15 -13 -13 -13 -12 -9
2 2 2 2 1 -0 -2 -2 -3 -4 -4 -5 -5 -5 -7 -10 -12 -15 -27 -34 -34 -34 -34 -31 -28 -25 -26 -26 -27 -27 -28 -28 -28 -28 -27 -24 -21 -15 -13 -13 -12 -10 -8
2 2 1 0 -1 -3 -4 -5 -5 -6 -6 -8 -10 -11 -13 -17 -26 -31 -32 -32 -31 -32 -30 -26 -23 -24 -26 -25 -25 -25 -26 -26 -27 -27 -28 -24 -20 -16 -13 -13 -9 -9 -8
2 -1 -3 -3 -4 -5 -7 -7 -8 -12 -18 -22 -24 -26 -27 -26 -24 -25 -25 -26 -28 -28 -24 -23 -23 -22 -23 -23 -23 -23 -24 -26 -26 -26 -27 -25 -20 -16 -13 -13 -10 -9 -8
-1 -4 -6 -8 -10 -11 -12 -13 -16 -12 -7 -6 -8 -10 -11 -12 -20 -22 -20 -19 -20 -23 -23 -22 -20 -20 -20 -21 -22 -23 -26 -27 -24 -24 -26 -26 -22 -17 -14 -13 -12 -10 -8
-4 -6 -7 -7 -7 -7 -11 -9 -7 -7 -8 -9 -9 -10 -13 -16 -15 -14 -14 -15 -20 -20 -19 -19 -19 -19 -19 -21 -23 -26 -27 -25 -24 -24 -24 -25 -24 -19 -15 -13 -13 -11 -10
-5 -5 -6 -7 -8 -8 -7 -7 -8 -9 -10 -11 -13 -12 -13 -13 -13 -13 -15 -18 -19 -18 -17 -18 -18 -19 -21 -23 -26 -26 -25 -24 -24 -23 -23 -24 -25 -22 -16 -14 -13 -13 -10
-6 -7 -7 -7 -7 -8 -9 -9 -10 -11 -12 -12 -13 -13 -13 -13 -14 -15 -16 -18 -17 -17 -18 -18 -18 -19 -21 -23 -25 -24 -23 -22 -21 -21 -21 -21 -23 -23 -19 -15 -14 -13 -11
-7 -8 -8 -9 -9 -10 -11 -11 -12 -13 -13 -14 -14 -14 -14 -15 -15 -16 -16 -16 -17 -17 -18 -18 -19 -19 -22 -24 -23 -22 -21 -20 -20 -19 -20 -20 -21 -23 -20 -16 -14 -13 -12
-9 -9 -10 -10 -11 -11 -12 -13 -14 -14 -14 -15 -15 -15 -16 -16 -17 -17 -17 -17 -18 -18 -19 -19 -20 -21 -24 -23 -22 -20 -19 -19 -19 -19 -19 -19 -20 -20 -19 -17 -15 -14 -13
-11 -11 -12 -13 -13 -14 -14 -15 -15 -15 -16 -16 -16 -17 -17 -17 -18 -18 -19 -19 -19 -20 -20 -20 -22 -24 -24 -23 -21 -20 -20 -19 -19 -19 -19 -19 -19 -19 -18 -17 -15 -14 -13
-13 -13 -14 -14 -15 -16 -16 -16 -16 -17 -17 -17 -18 -18 -19 -19 -19 -20 -20 -21 -21 -21 -22 -23 -24 -25 -24 -22 -20 -20 -20 -20 -19 -19 -19 -19 -18 -18 -17 -16 -16 -15 -14
-15 -15 -16 -17 -18 -18 -18 -18 -18 -18 -19 -19 -19 -20 -20 -21 -21 -21 -22 -22 -22 -23 -23 -24 -25 -25 -23 -21 -20 -20 -20 -19 -19 -19 -19 -19 -18 -18 -17 -16 -16 -15 -14
Wind_Speed
52 51 50 46 43 44 41 35 40 37 34 39 35 35 37 33 28 25 23 26 25 27 29 29 26 25 22 19 18 20 25 26 29 29 29 29 29 28 31 32 33 36 37
49 43 38 36 43 41 37 45 34 30 27 28 28 28 22 20 22 23 24 24 26 24 24 24 23 19 18 17 18 21 22 21 27 30 32 34 33 32 34 35 36 40 41
40 42 44 37 33 43 41 43 33 39 27 30 30 31 22 19 16 19 22 22 20 20 19 18 18 16 15 16 16 18 20 20 25 32 36 37 35 30 31 33 34 35 38
41 40 40 41 41 37 43 31 40 42 38 34 33 26 23 21 21 21 21 19 19 19 18 16 13 13 12 14 18 19 18 19 21 25 29 33 34 34 34 37 40 39 40
43 43 38 37 41 42 40 38 40 35 38 33 25 23 23 23 21 21 19 18 18 17 14 12 11 12 16 15 13 13 17 20 24 28 33 36 38 37 37 38 38 39 41
35 39 36 33 28 30 34 33 36 36 30 27 25 24 23 21 20 19 17 17 15 12 12 13 14 17 16 17 17 18 21 24 27 29 32 34 37 38 42 44 43 41 43
34 33 31 31 30 28 32 32 30 26 27 25 23 21 19 17 17 16 15 14 14 14 15 16 16 16 17 18 19 22 24 26 29 33 37 40 42 42 41 43 40 39 44
29 30 30 32 35 34 31 28 27 25 23 22 20 18 18 17 17 16 15 16 16 16 15 14 14 16 19 23 26 28 29 29 30 32 34 37 38 38 36 40 41 46 46
28 28 29 30 32 31 29 28 26 24 23 21 21 20 19 18 17 18 18 15 13 12 13 14 17 19 21 23 25 26 28 28 27 28 29 30 31 30 26 28 33 29 34
29 28 28 31 32 29 26 25 23 22 22 21 20 18 16 18 19 16 14 13 12 12 13 15 16 16 18 21 24 25 27 28 30 31 32 32 32 31 26 23 24 26 28
24 25 28 28 26 24 24 23 23 23 21 20 20 20 19 16 16 15 14 12 12 12 13 13 14 16 18 20 22 23 25 28 29 31 33 34 34 34 30 29 26 25 31
24 24 24 23 24 23 21 22 22 22 22 22 22 23 21 19 17 16 14 13 13 13 13 14 15 17 18 20 21 22 24 26 28 29 30 32 33 33 31 30 29 27 25
22 22 23 22 20 19 20 21 22 22 22 23 22 21 20 19 16 15 14 14 14 14 15 16 16 16 18 18 19 21 22 23 25 27 28 30 31 32 33 33 29 27 24
22 22 21 21 22 21 21 21 21 22 22 21 20 20 19 17 16 14 13 14 15 16 15 15 16 17 16 18 19 20 20 22 23 25 27 29 31 31 33 33 29 26 22
22 24 25 25 24 22 21 21 22 21 18 17 17 15 15 15 15 15 15 16 16 16 15 15 15 16 17 19 20 21 22 23 25 26 27 28 30 30 32 34 26 19 22
26 25 24 24 24 24 24 24 21 17 16 14 13 13 13 14 16 16 16 16 16 16 15 16 17 19 20 21 22 24 25 26 26 27 27 27 29 29 31 33 21 17 24
24 24 24 24 26 24 21 16 15 15 13 10 9 12 13 15 13 12 13 12 14 16 16 17 18 20 21 22 24 25 27 27 27 27 27 27 27 27 27 29 22 16 25
25 25 26 25 21 16 12 11 9 3 6 12 12 12 15 16 16 15 15 16 17 17 18 18 19 20 22 23 24 26 28 28 27 27 26 26 24 26 25 26 23 17 17
26 25 21 18 15 12 10 8 14 15 11 12 12 13 16 17 17 17 20 21 19 18 18 19 20 22 23 24 25 26 27 27 27 28 26 25 23 25 22 22 24 15 11
17 14 14 14 14 14 14 13 10 9 9 9 12 14 15 16 18 20 21 19 18 18 20 21 22 23 25 25 25 25 27 27 27 26 25 24 22 22 22 21 21 19 8
11 11 10 10 10 8 7 7 7 8 9 11 12 14 17 18 19 19 19 19 19 20 22 23 24 25 25 25 25 25 26 26 24 25 26 24 22 22 21 21 20 18 11
9 9 7 6 4 3 4 6 7 9 11 12 13 14 16 18 19 20 20 20 20 21 22 24 25 26 26 24 24 26 24 24 23 23 23 22 22 21 21 20 18 17 12
6 5 3 2 3 5 6 6 8 10 12 14 15 16 17 17 17 19 20 20 22 24 25 26 28 28 24 22 22 22 24 22 21 21 23 23 22 21 20 20 18 17 13
4 3 2 4 5 6 7 7 8 10 12 12 13 15 17 18 19 20 21 23 25 26 26 28 27 25 22 22 20 20 21 21 21 21 22 23 23 21 20 20 17 16 15
5 4 4 5 6 6 7 8 10 11 13 15 16 17 18 19 21 22 24 24 25 27 26 25 23 22 22 21 20 20 21 21 19 18 19 20 21 20 20 19 17 16 15
5 6 7 7 7 8 10 11 12 13 14 15 15 16 19 21 21 22 25 27 27 26 24 23 21 20 19 19 19 19 19 18 16 15 18 20 21 20 19 19 17 16 14
Wind_Direction
225 226 226 227 229 238 240 247 254 251 247 242 254 253 257 259 254 243 249 249 253 257 255 258 252 259 255 252 256 260 269 276 272 273 277 279 277 275 277 279 278 274 275
223 222 225 240 241 238 248 248 249 259 250 252 259 258 258 254 247 243 245 249 257 255 252 250 250 249 249 247 261 275 283 274 263 274 281 282 281 277 275 275 275 270 275
218 218 231 230 231 240 239 247 246 246 254 257 257 257 249 242 244 237 240 247 251 253 245 240 242 239 242 257 283 292 283 276 270 274 278 282 288 288 288 288 285 281 282
216 221 241 237 232 240 238 234 241 244 249 243 252 243 237 234 234 236 233 234 237 234 231 232 230 248 263 275 280 272 273 275 278 281 284 284 287 289 288 286 287 288 289
227 225 234 230 231 239 237 234 238 234 236 238 236 235 235 238 229 228 233 229 221 220 212 213 237 257 268 266 266 269 273 273 275 279 282 285 287 290 290 292 292 293 290
224 217 224 227 229 225 225 222 222 218 224 229 232 230 226 223 227 228 217 217 203 199 223 238 247 245 237 245 256 267 273 279 282 285 286 288 288 291 292 290 289 288 290
213 217 222 217 214 211 205 201 204 214 221 226 224 222 217 211 214 207 190 195 206 215 224 231 234 245 257 264 269 272 273 274 279 286 288 288 291 291 291 288 290 290 282
207 206 201 192 192 194 198 200 208 215 214 212 207 202 197 194 187 189 199 204 214 218 224 233 246 260 270 275 276 277 278 281 283 284 285 289 292 296 297 293 290 279 278
207 205 202 203 203 201 199 209 209 197 191 188 188 189 195 200 200 198 199 200 206 218 236 251 261 267 274 279 284 289 292 294 294 296 296 296 296 299 301 304 309 294 285
207 203 207 206 205 206 206 190 185 184 182 186 191 195 192 194 188 195 201 208 216 233 248 260 267 272 280 288 293 300 304 306 310 312 312 309 307 303 303 297 307 301 294
201 202 202 201 200 192 184 184 186 186 188 189 187 183 187 197 200 208 215 227 240 253 261 270 283 288 293 298 301 304 308 313 314 314 315 314 313 312 305 297 304 296 294
206 204 199 190 186 185 191 188 184 189 188 188 187 182 189 200 208 218 230 247 259 269 277 286 291 295 298 299 303 307 309 312 313 314 315 317 319 318 313 304 292 296 288
208 198 189 184 186 189 190 188 187 192 197 192 194 196 202 209 219 230 245 260 274 281 285 290 295 295 297 302 302 307 312 314 317 318 320 320 322 318 316 311 297 295 292
196 190 186 188 184 188 188 190 194 195 195 202 205 210 212 217 229 241 258 271 277 283 288 292 291 295 300 304 308 310 314 319 320 321 321 321 321 320 320 320 305 299 293
194 190 186 189 192 188 184 183 190 197 215 222 216 221 227 233 246 258 266 272 278 283 291 295 297 299 304 309 313 316 319 321 323 321 321 320 322 321 323 326 313 294 292
190 189 191 190 188 188 189 181 180 189 196 208 216 228 240 252 259 265 270 279 286 295 300 299 300 305 309 312 316 318 320 323 324 322 320 321 324 326 327 327 317 295 291
192 185 179 180 182 185 184 190 202 204 214 221 238 247 251 258 267 270 279 290 294 297 296 300 303 305 309 313 315 316 319 322 322 321 322 322 323 325 328 330 322 287 286
185 179 177 175 175 174 182 199 195 197 264 254 267 275 276 284 286 292 296 304 303 297 298 301 303 305 308 310 311 313 315 317 319 319 319 318 322 324 327 331 332 308 267
168 164 165 169 178 186 195 231 244 245 256 265 273 281 287 290 293 300 307 309 303 297 299 300 301 302 304 306 307 309 311 313 314 315 316 317 320 321 322 328 328 339 263
167 181 183 177 182 210 228 232 240 246 255 264 268 274 278 281 284 290 297 297 293 295 298 301 301 301 305 306 308 309 309 311 313 313 313 315 315 317 319 322 327 334 335
172 171 188 200 205 212 222 233 246 262 272 275 271 272 275 278 286 293 299 298 295 297 300 301 301 304 306 309 309 309 310 313 314 315 315 315 314 314 316 314 318 322 333
168 170 175 187 202 225 255 270 277 280 282 283 282 279 281 287 293 296 295 292 294 297 298 299 301 303 308 308 307 308 308 311 314 314 314 316 315 313 314 312 310 313 324
143 148 160 201 257 274 285 291 287 282 281 282 284 284 288 291 292 292 292 293 294 296 296 297 300 304 305 302 304 304 307 310 311 313 314 315 316 317 315 313 309 307 312
75 50 12 344 331 322 316 304 294 295 298 294 292 294 294 294 295 294 296 297 297 297 298 299 300 302 299 300 299 301 300 300 304 308 311 313 314 316 313 310 306 302 297
31 12 352 332 317 311 306 303 303 301 298 299 300 299 298 300 302 303 300 301 302 302 300 298 298 298 300 300 300 301 300 299 298 302 306 306 309 313 313 307 303 298 289
2 349 342 334 324 315 311 308 307 306 305 304 304 305 307 310 308 309 311 311 309 305 301 301 302 299 297 297 298 301 301 299 298 300 301 303 304 310 315 310 300 294 288
Height
1465 1468 1477 1483 1488 1491 1494 1497 1499 1499 1502 1506 1507 1508 1507 1509 1509 1512 1514 1516 1517 1517 1518 1521 1520 1522 1523 1524 1524 1525 1524 1523 1519 1518 1518 1520 1519 1519 1519 1517 1516 1515 1513
1461 1469 1478 1484 1484 1487 1490 1488 1488 1472 1493 1497 1500 1501 1502 1502 1504 1506 1509 1509 1511 1512 1513 1515 1516 1516 1517 1519 1519 1518 1517 1517 1514 1511 1512 1512 1512 1512 1511 1509 1507 1506 1504
1458 1464 1466 1469 1468 1474 1478 1482 1484 1480 1485 1491 1493 1494 1496 1497 1499 1501 1503 1504 1505 1507 1508 1509 1511 1510 1512 1513 1514 1513 1513 1512 1510 1507 1503 1504 1503 1504 1502 1500 1497 1496 1494
1450 1457 1455 1461 1464 1465 1470 1476 1477 1479 1482 1485 1487 1488 1491 1492 1494 1495 1496 1498 1499 1501 1503 1505 1506 1507 1509 1509 1508 1507 1506 1504 1504 1501 1497 1495 1495 1495 1494 1492 1487 1487 1483
1441 1447 1450 1455 1457 1458 1461 1467 1470 1473 1477 1478 1481 1483 1484 1486 1487 1489 1491 1493 1495 1496 1499 1501 1503 1503 1503 1503 1502 1502 1501 1499 1497 1495 1492 1489 1487 1486 1485 1482 1478 1476 1472
1436 1441 1445 1445 1448 1451 1456 1460 1463 1467 1470 1473 1475 1477 1479 1481 1482 1485 1486 1489 1491 1494 1496 1498 1498 1497 1497 1497 1497 1497 1497 1495 1493 1490 1486 1482 1478 1477 1474 1472 1468 1465 1459
1429 1431 1435 1438 1442 1446 1452 1455 1459 1464 1466 1468 1470 1473 1475 1477 1478 1480 1483 1487 1489 1491 1491 1492 1492 1492 1493 1493 1492 1491 1491 1489 1485 1482 1478 1477 1471 1468 1464 1459 1457 1453 1448
1423 1425 1428 1433 1438 1442 1445 1450 1455 1457 1459 1462 1465 1468 1471 1473 1475 1478 1481 1483 1484 1485 1486 1488 1488 1487 1487 1486 1485 1484 1482 1481 1477 1474 1470 1467 1463 1458 1454 1449 1444 1440 1437
1418 1421 1425 1430 1433 1436 1441 1445 1448 1451 1454 1458 1462 1465 1467 1469 1472 1474 1476 1478 1480 1481 1482 1482 1482 1482 1482 1480 1477 1474 1473 1470 1467 1463 1461 1457 1454 1451 1448 1442 1435 1432 1425
1416 1420 1424 1427 1431 1434 1438 1441 1445 1449 1452 1456 1459 1463 1465 1468 1470 1472 1474 1475 1476 1477 1478 1478 1477 1477 1474 1472 1469 1466 1462 1459 1455 1451 1448 1446 1443 1440 1439 1436 1430 1424 1420
1417 1418 1421 1425 1429 1434 1437 1440 1442 1445 1448 1452 1456 1460 1463 1466 1467 1469 1471 1472 1473 1473 1473 1472 1471 1469 1467 1464 1461 1459 1456 1451 1447 1443 1439 1436 1433 1430 1428 1425 1421 1417 1413
1415 1418 1421 1425 1428 1431 1435 1437 1441 1444 1447 1451 1454 1457 1460 1462 1464 1465 1467 1469 1468 1468 1467 1466 1464 1462 1460 1458 1456 1453 1450 1446 1442 1438 1434 1430 1425 1421 1417 1413 1410 1407 1404
1414 1418 1422 1426 1429 1432 1434 1437 1441 1444 1447 1450 1453 1456 1458 1460 1462 1463 1463 1464 1464 1463 1461 1460 1458 1456 1454 1452 1451 1448 1445 1441 1437 1433 1429 1424 1420 1415 1409 1404 1399 1397 1395
1414 1418 1422 1426 1429 1432 1435 1439 1442 1444 1447 1450 1452 1455 1457 1457 1459 1459 1459 1459 1459 1458 1456 1454 1452 1450 1448 1447 1444 1442 1439 1436 1432 1428 1424 1420 1414 1408 1402 1397 1391 1389 1387
1412 1416 1421 1425 1428 1432 1437 1441 1444 1447 1449 1451 1452 1454 1456 1456 1456 1456 1455 1454 1453 1452 1451 1448 1446 1444 1443 1441 1438 1435 1433 1430 1427 1423 1419 1414 1408 1402 1395 1390 1386 1382 1381
1410 1415 1420 1424 1428 1432 1435 1439 1442 1445 1448 1450 1451 1452 1454 1455 1454 1453 1451 1450 1447 1446 1445 1443 1441 1439 1437 1434 1432 1429 1426 1423 1420 1417 1414 1409 1403 1396 1390 1384 1381 1379 1378
1410 1414 1419 1424 1428 1431 1435 1438 1440 1443 1445 1447 1448 1449 1449 1450 1449 1448 1446 1445 1443 1442 1440 1438 1435 1433 1432 1430 1427 1423 1420 1417 1414 1411 1408 1403 1398 1393 1386 1380 1376 1374 1373
1409 1414 1418 1422 1427 1431 1435 1438 1439 1441 1442 1443 1443 1445 1445 1445 1445 1443 1441 1440 1440 1438 1436 1433 1431 1429 1428 1425 1422 1418 1415 1412 1409 1406 1402 1397 1393 1388 1382 1378 1373 1369 1369
1407 1412 1419 1423 1426 1429 1433 1436 1437 1437 1438 1439 1440 1440 1440 1440 1439 1438 1436 1435 1434 1432 1431 1429 1427 1425 1422 1420 1416 1413 1409 1406 1403 1399 1396 1392 1388 1384 1378 1375 1371 1366 1363
1413 1417 1419 1423 1427 1429 1431 1433 1434 1435 1436 1436 1436 1437 1437 1437 1435 1434 1433 1431 1429 1428 1425 1424 1422 1420 1417 1414 1410 1406 1403 1400 1397 1393 1389 1385 1381 1380 1375 1371 1369 1363 1361
1415 1418 1422 1425 1427 1427 1428 1430 1431 1432 1433 1433 1434 1434 1434 1433 1432 1430 1429 1427 1425 1423 1421 1419 1416 1414 1411 1407 1403 1400 1397 1394 1391 1387 1384 1381 1377 1374 1371 1368 1366 1363 1359
1417 1418 1420 1423 1425 1426 1427 1427 1428 1429 1430 1430 1430 1430 1429 1428 1426 1425 1423 1421 1419 1418 1415 1413 1411 1408 1404 1400 1396 1393 1390 1387 1385 1381 1378 1374 1372 1369 1366 1363 1361 1359 1356
1417 1418 1420 1422 1423 1423 1424 1424 1425 1426 1426 1427 1426 1425 1424 1423 1421 1420 1418 1416 1414 1412 1410 1407 1404 1401 1398 1395 1392 1389 1385 1382 1379 1376 1373 1369 1366 1364 1362 1359 1357 1355 1353
1418 1419 1420 1421 1421 1422 1422 1423 1423 1423 1423 1422 1422 1421 1419 1418 1416 1414 1412 1410 1407 1405 1403 1400 1396 1393 1390 1387 1384 1382 1380 1376 1373 1371 1369 1365 1362 1360 1357 1355 1353 1351 1349
1419 1420 1420 1420 1420 1420 1420 1420 1420 1420 1419 1418 1417 1416 1414 1413 1411 1408 1405 1403 1401 1398 1395 1391 1388 1386 1384 1381 1379 1376 1374 1372 1368 1366 1363 1360 1358 1356 1353 1351 1349 1347 1346
1419 1419 1418 1418 1418 1418 1418 1417 1417 1416 1414 1413 1412 1410 1408 1406 1404 1401 1399 1396 1393 1390 1388 1385 1382 1378 1376 1375 1372 1370 1367 1365 1363 1361 1358 1356 1353 1351 1349 1346 1344 1343 1342